Weather Service Report


334 
ASUS41 KGYX 301610
RWRGYX
WEATHER ROUNDUP FOR MAINE AND NEW HAMPSHIRE
NATIONAL WEATHER SERVICE GRAY ME
1200 PM EDT MON MAR 30 2015

MEZ002-005-006-010-012-015-018-020-021-024-026-027-029-301700-
MAINE
  
CITY           SKY/WX    TMP DP  RH WIND       PRES   REMARKS
PORTLAND       LGT SNOW  35  30  82 S14G29    29.78F                  
SANFORD        CLOUDY    34  21  60 SW9       29.77F                  
BAR HARBOR     CLOUDY    37  30  75 S20G29    29.82F                  
WISCASSET      LGT SNOW  34  31  88 SW13G22   29.79F FOG              
ROCKLAND       CLOUDY    37  28  70 S15G24    29.79F                  
FRYEBURG       CLOUDY    35  20  54 SW8G17    29.72F                  
LEWISTONAUBURN CLOUDY    34  25  69 S10       29.75S                  
AUGUSTA        LGT SNOW  32  28  85 S15G28    29.75F VSB 1            
WATERVILLE     CLOUDY    34  25  69 S10G18    29.72F                  
BANGOR         CLOUDY    38  27  64 S16G25    29.76F                  
GREENVILLE       N/A     30  20  66 S13G21    29.60F WCI  20          
MILLINOCKET    CLOUDY    38  21  50 VRB6G20   29.71F                  
HOULTON        CLOUDY    39  19  44 S10G28    29.69F                  
PRESQUE ISLE   CLOUDY    37  16  41 S14G23    29.66F                  
FRENCHVILLE    CLOUDY    30  17  58 SE15      29.61F WCI  19          
CARIBOU        CLOUDY    35  18  49 S13G23    29.65F                  
$$

NHZ002-005-008-009-011-012-014-301700-
NEW HAMPSHIRE
  
CITY           SKY/WX    TMP DP  RH WIND       PRES   REMARKS
PORTSMOUTH     FLURRIES  35  27  73 S8        29.77F                  
ROCHESTER      CLOUDY    34  27  75 S7        29.76F                  
NASHUA         MIX PCPN  36  29  76 VRB6      29.78F                  
MANCHESTER     FLURRIES  35  30  82 S12       29.75F                  
CONCORD        CLOUDY    34  27  75 S10       29.74F                  
LACONIA        CLOUDY    34  23  64 SW9G16    29.70F                  
PLYMOUTH       FLURRIES  32  25  73 CALM      29.71F                  
BERLIN         FLURRIES  33  22  63 S8        29.62F                  
WHITEFIELD     LGT SNOW  35  25  66 SW8       29.63F                  
JAFFREY        LGT SNOW  32  27  81 SW12G18   29.71F                  
KEENE          CLOUDY    36  27  69 S10       29.73F                  
LEBANON        CLOUDY    35  25  66 S9        29.69F                  
MT WASHINGTON  SNOW      16  16 100 W49         N/A  VSB 0   WCI  -9  
$$

VTZ005-007-008-301700-
VERMONT
  
CITY           SKY/WX    TMP DP  RH WIND       PRES   REMARKS
ST JOHNSBURY     N/A     34  22  61 MISG      29.63F                  
MONTPELIER     CLOUDY    32  24  72 S9        29.65F                  
BURLINGTON     CLOUDY    37  27  67 S17G30    29.61F                  
$$

MAZ007-012-024-CTZ003-RIZ002-NYZ038-NYZ072-301700-
SOUTHERN NEW ENGLAND AND NY
  
CITY           SKY/WX    TMP DP  RH WIND       PRES   REMARKS
BOSTON         CLOUDY    39  29  67 S15       29.81F                  
WORCESTER      FLURRIES  33  29  85 SW16      29.75F                  
NANTUCKET      CLOUDY    41  31  67 S15       29.90F                  
PROVIDENCE     LGT RAIN  40  30  67 S17G26    29.83F                  
HARTFORD       CLOUDY    38  29  70 S16G22    29.79F                  
ALBANY         CLOUDY    38  28  67 S13       29.72F                  
NEW YORK CITY  CLOUDY    41  30  65 SW13G21   29.84F                  
$$

ANZ081-ANZ082-ANZ150-NHZ014-MEZ023>029-301700-
COASTAL MARINE OBSERVATIONS
  
STATION/POSITION TIME  TEMP    WIND        PRES    WAVE
                       AIR SEA DIR/SP/G            HT/PER
                 (UTC) (F)     (DEG/KT/KT) (MB)    (FT/S)
MOUNT DESERT ROC 1600   38                 1009.9F
MATINICUS ROCK   1600   38     200/ 31/ 34 1009.3F
WELLS            1500   33 34  210/ 16/ 21 1008.8
ISLE OF SHOALS   1600   35     190/ 21/ 23 1007.9F
JEFFREYS LEDGE   1521      40                N/A     6/ 6
CASHES LEDGE BUO 1550   39 38              1009.7F   7/ 6
$$

.............KEY..............
   WCI - WIND CHILL
   TC  - TEMPERATURE IN CELSIUS
   VSB - VISIBILITY IN MILES
   HX  - HEAT INDEX
   FAIR- INDICATES FEW OR NO CLOUDS BELOW 12,000 FT, WITH NO 
         SIGNIFICANT WEATHER AND/OR OBSTRUCTIONS TO VISIBILITY.



Return to Home page


Western Regional Climate Center, wrcc@dri.edu